Time,TemperatureF,DewpointF,PressureIn,WindDirection,WindDirectionDegrees,WindSpeedMPH,WindSpeedGustMPH,Humidity,HourlyPrecipIn,Conditions,Clouds,dailyrainin,SoftwareType,DateUTC
2013-02-14 00:32:00,27.0,24.0,-100.00,NNW,343,4.0,6.0,90,-99.99,,,-99.99,,2013-02-14 07:32:00,
2013-02-14 00:42:00,27.0,24.0,-100.00,NNW,343,4.0,6.0,90,-99.99,,,-99.99,,2013-02-14 07:42:00,
2013-02-14 00:52:00,27.0,24.0,-100.00,NNW,343,4.0,6.0,90,-99.99,,,-99.99,,2013-02-14 07:52:00,
2013-02-14 01:01:00,27.0,24.0,-100.00,NNW,343,4.0,6.0,90,-99.99,,,-99.99,,2013-02-14 08:01:00,
2013-02-14 01:32:00,27.0,25.0,-100.00,WNW,303,7.0,19.0,91,-99.99,,,-99.99,,2013-02-14 08:32:00,
2013-02-14 01:43:00,27.0,25.0,-100.00,WNW,303,7.0,19.0,91,-99.99,,,-99.99,,2013-02-14 08:43:00,
2013-02-14 01:52:00,27.0,25.0,-100.00,NNW,333,9.0,12.0,91,-99.99,,,-99.99,,2013-02-14 08:52:00,
2013-02-14 02:02:00,27.0,25.0,-100.00,NNW,336,13.0,20.0,91,-99.99,,,-99.99,,2013-02-14 09:02:00,
2013-02-14 02:11:00,27.0,25.0,-100.00,SSE,165,7.0,15.0,92,-99.99,,,-99.99,,2013-02-14 09:11:00,
2013-02-14 02:21:00,27.0,25.0,-100.00,SSE,165,7.0,15.0,92,-99.99,,,-99.99,,2013-02-14 09:21:00,
2013-02-14 02:31:00,27.0,25.0,-100.00,North,8,8.0,12.0,92,-99.99,,,-99.99,,2013-02-14 09:31:00,
2013-02-14 02:42:00,27.0,25.0,-100.00,North,8,8.0,12.0,92,-99.99,,,-99.99,,2013-02-14 09:42:00,
2013-02-14 02:51:00,27.0,25.0,-100.00,NE,40,10.0,14.0,93,-99.99,,,-99.99,,2013-02-14 09:51:00,
2013-02-14 03:02:00,26.0,24.0,-100.00,NNW,327,8.0,10.0,93,-99.99,,,-99.99,,2013-02-14 10:02:00,
2013-02-14 03:11:00,26.0,24.0,-100.00,WNW,292,8.0,8.0,93,-99.99,,,-99.99,,2013-02-14 10:11:00,
2013-02-14 03:21:00,26.0,24.0,-100.00,WNW,292,8.0,8.0,93,-99.99,,,-99.99,,2013-02-14 10:21:00,
2013-02-14 03:31:00,26.0,25.0,-100.00,NW,317,7.0,14.0,94,-99.99,,,-99.99,,2013-02-14 10:31:00,
2013-02-14 03:42:00,26.0,25.0,-100.00,NW,317,7.0,14.0,94,-99.99,,,-99.99,,2013-02-14 10:42:00,
2013-02-14 03:52:00,26.0,25.0,-100.00,NW,317,7.0,14.0,94,-99.99,,,-99.99,,2013-02-14 10:52:00,
2013-02-14 04:02:00,26.0,25.0,-100.00,SE,126,0.0,6.0,94,-99.99,,,-99.99,,2013-02-14 11:02:00,
2013-02-14 04:11:00,26.0,25.0,-100.00,WNW,285,4.0,9.0,94,-99.99,,,-99.99,,2013-02-14 11:11:00,
2013-02-14 04:21:00,26.0,25.0,-100.00,WNW,285,4.0,9.0,94,-99.99,,,-99.99,,2013-02-14 11:21:00,
2013-02-14 04:32:00,26.0,25.0,-100.00,WNW,285,4.0,9.0,94,-99.99,,,-99.99,,2013-02-14 11:32:00,
2013-02-14 04:42:00,26.0,25.0,-100.00,WNW,285,4.0,9.0,94,-99.99,,,-99.99,,2013-02-14 11:42:00,
2013-02-14 04:52:00,26.0,25.0,-100.00,WNW,285,4.0,9.0,94,-99.99,,,-99.99,,2013-02-14 11:52:00,
2013-02-14 05:32:00,25.0,24.0,-100.00,North,358,9.0,12.0,94,-99.99,,,-99.99,,2013-02-14 12:32:00,
2013-02-14 05:42:00,25.0,24.0,-100.00,North,1,2.0,13.0,94,-99.99,,,-99.99,,2013-02-14 12:42:00,
2013-02-14 05:53:00,25.0,24.0,-100.00,North,1,2.0,13.0,94,-99.99,,,-99.99,,2013-02-14 12:53:00,
2013-02-14 06:01:00,25.0,24.0,-100.00,North,354,4.0,14.0,94,-99.99,,,-99.99,,2013-02-14 13:01:00,
2013-02-14 06:11:00,25.0,24.0,-100.00,North,354,4.0,14.0,94,-99.99,,,-99.99,,2013-02-14 13:11:00,
2013-02-14 06:21:00,25.0,24.0,-100.00,North,354,4.0,14.0,94,-99.99,,,-99.99,,2013-02-14 13:21:00,
2013-02-14 06:31:00,24.0,23.0,-100.00,NW,320,11.0,14.0,96,-99.99,,,-99.99,,2013-02-14 13:31:00,
2013-02-14 06:41:00,24.0,23.0,-100.00,NW,320,11.0,14.0,96,-99.99,,,-99.99,,2013-02-14 13:41:00,
2013-02-14 06:52:00,24.0,23.0,-100.00,NW,320,11.0,14.0,96,-99.99,,,-99.99,,2013-02-14 13:52:00,
2013-02-14 07:01:00,23.0,21.0,-100.00,NNW,347,9.0,22.0,92,-99.99,,,-99.99,,2013-02-14 14:01:00,
2013-02-14 07:11:00,23.0,21.0,-100.00,North,358,6.0,17.0,92,-99.99,,,-99.99,,2013-02-14 14:11:00,
2013-02-14 07:21:00,23.0,21.0,-100.00,North,358,6.0,17.0,92,-99.99,,,-99.99,,2013-02-14 14:21:00,
2013-02-14 07:31:00,23.0,21.0,-100.00,West,272,12.0,18.0,92,-99.99,,,-99.99,,2013-02-14 14:31:00,
2013-02-14 07:41:00,23.0,21.0,-100.00,West,272,12.0,18.0,92,-99.99,,,-99.99,,2013-02-14 14:41:00,
2013-02-14 07:52:00,22.0,20.0,-100.00,North,358,9.0,19.0,91,-99.99,,,-99.99,,2013-02-14 14:52:00,
2013-02-14 08:01:00,22.0,20.0,-100.00,North,0,5.0,22.0,92,-99.99,,,-99.99,,2013-02-14 15:01:00,
2013-02-14 08:32:00,22.0,20.0,-100.00,North,0,5.0,22.0,92,-99.99,,,-99.99,,2013-02-14 15:32:00,
2013-02-14 10:01:00,22.0,20.0,-100.00,WNW,289,6.0,19.0,92,-99.99,,,-99.99,,2013-02-14 17:01:00,
2013-02-14 10:11:00,22.0,20.0,-100.00,WNW,284,6.0,13.0,92,-99.99,,,-99.99,,2013-02-14 17:11:00,
2013-02-14 10:21:00,22.0,20.0,-100.00,WNW,284,6.0,13.0,92,-99.99,,,-99.99,,2013-02-14 17:21:00,
2013-02-14 10:32:00,22.0,20.0,-100.00,ESE,108,7.0,11.0,91,-99.99,,,-99.99,,2013-02-14 17:32:00,
2013-02-14 10:42:00,22.0,20.0,-100.00,ESE,108,7.0,11.0,91,-99.99,,,-99.99,,2013-02-14 17:42:00,
2013-02-14 10:52:00,22.0,20.0,-100.00,ESE,108,7.0,11.0,91,-99.99,,,-99.99,,2013-02-14 17:52:00,
2013-02-14 11:01:00,22.0,20.0,-100.00,ESE,108,7.0,11.0,91,-99.99,,,-99.99,,2013-02-14 18:01:00,
2013-02-14 14:32:00,27.0,20.0,-100.00,NNW,344,4.0,11.0,75,-99.99,,,-99.99,,2013-02-14 21:32:00,
2013-02-14 14:42:00,27.0,20.0,-100.00,NNW,344,4.0,11.0,75,-99.99,,,-99.99,,2013-02-14 21:42:00,
2013-02-14 14:52:00,27.0,20.0,-100.00,NNW,344,4.0,11.0,75,-99.99,,,-99.99,,2013-02-14 21:52:00,
2013-02-14 15:02:00,27.0,20.0,-100.00,NNW,344,4.0,11.0,75,-99.99,,,-99.99,,2013-02-14 22:02:00,
2013-02-14 15:11:00,28.0,21.0,-100.00,NNW,340,0.0,10.0,75,-99.99,,,-99.99,,2013-02-14 22:11:00,
2013-02-14 15:21:00,28.0,21.0,-100.00,NNW,340,0.0,10.0,75,-99.99,,,-99.99,,2013-02-14 22:21:00,
2013-02-14 15:31:00,28.0,21.0,-100.00,NNW,340,0.0,10.0,75,-99.99,,,-99.99,,2013-02-14 22:31:00,
2013-02-14 15:42:00,28.0,21.0,-100.00,NNW,340,0.0,10.0,75,-99.99,,,-99.99,,2013-02-14 22:42:00,
2013-02-14 15:51:00,28.0,21.0,-100.00,NNW,340,0.0,10.0,75,-99.99,,,-99.99,,2013-02-14 22:51:00,
2013-02-14 17:01:00,27.0,21.0,-100.00,WNW,291,0.0,6.0,79,-99.99,,,-99.99,,2013-02-15 00:01:00,
2013-02-14 17:32:00,27.0,21.0,-100.00,WNW,291,0.0,6.0,79,-99.99,,,-99.99,,2013-02-15 00:32:00,
2013-02-14 17:42:00,27.0,21.0,-100.00,WNW,291,0.0,6.0,79,-99.99,,,-99.99,,2013-02-15 00:42:00,
2013-02-14 18:32:00,24.0,20.0,-100.00,NE,42,0.0,5.0,86,-99.99,,,-99.99,,2013-02-15 01:32:00,
2013-02-14 18:42:00,24.0,20.0,-100.00,NE,42,0.0,5.0,86,-99.99,,,-99.99,,2013-02-15 01:42:00,
2013-02-14 18:52:00,24.0,20.0,-100.00,NE,42,0.0,5.0,86,-99.99,,,-99.99,,2013-02-15 01:52:00,
2013-02-14 19:01:00,24.0,20.0,-100.00,NE,42,0.0,5.0,86,-99.99,,,-99.99,,2013-02-15 02:01:00,
2013-02-14 22:33:00,21.0,19.0,-100.00,NNE,30,0.0,0.0,91,-99.99,,,-99.99,,2013-02-15 05:33:00,
2013-02-14 22:42:00,21.0,19.0,-100.00,NNE,30,0.0,0.0,91,-99.99,,,-99.99,,2013-02-15 05:42:00,
2013-02-14 22:52:00,21.0,19.0,-100.00,NNE,30,0.0,0.0,91,-99.99,,,-99.99,,2013-02-15 05:52:00,
2013-02-14 23:02:00,22.0,20.0,-100.00,SSE,164,0.0,0.0,92,-99.99,,,-99.99,,2013-02-15 06:02:00,
2013-02-14 23:11:00,22.0,20.0,-100.00,SSE,164,0.0,0.0,92,-99.99,,,-99.99,,2013-02-15 06:11:00,
2013-02-14 23:22:00,22.0,20.0,-100.00,SSE,164,0.0,0.0,92,-99.99,,,-99.99,,2013-02-15 06:22:00,
2013-02-14 23:31:00,21.0,19.0,-100.00,SW,236,2.0,5.0,93,-99.99,,,-99.99,,2013-02-15 06:31:00,
2013-02-14 23:42:00,21.0,19.0,-100.00,SW,236,2.0,5.0,93,-99.99,,,-99.99,,2013-02-15 06:42:00,
2013-02-14 23:51:00,21.0,19.0,-100.00,SW,236,2.0,5.0,93,-99.99,,,-99.99,,2013-02-15 06:51:00,